Weather History for KCHA - March, 2014

Change the Weather History Date:

Saturday, March 1, 2014

  Actual Average Record
Temperature  
Mean Temperature 50 °F 48 °F  
Max Temperature 56 °F 59 °F 79 °F (1951)
Min Temperature 43 °F 37 °F 17 °F (1914)
Degree Days  
Heating Degree Days 15 17  
Month to date heating degree days 15 17  
Since 1 July heating degree days 2809 2639  
Cooling Degree Days 0 0  
Month to date cooling degree days 0 0  
Year to date cooling degree days 0 0  
Moisture  
Dew Point 35 °F    
Average Humidity 52    
Maximum Humidity 76    
Minimum Humidity 27    
Precipitation  
Precipitation T in 0.17 in 3.55 in (1922)
Month to date precipitation T 0.17  
Year to date precipitation 7.59 9.92  
Snow  
Snow 0.00 in 0.10 in - ()
Month to date snowfall 0.0 0.1  
Since 1 July snowfall 8.4 2.7  
Snow Depth 0.00 in    
Sea Level Pressure  
Sea Level Pressure 30.21 in    
Wind  
Wind Speed 3 mph (South)    
Max Wind Speed 21 mph    
Max Gust Speed 28 mph    
Visibility 10 miles    
Events Rain    
T = Trace of Precipitation, MM = Missing Value Source: NWS Daily Summary

Daily Weather History Graph

Daily Weather History Graph

Search for Another Location

Airport or City:

Trip Planner

Search our weather history database for the weather conditions in past years. The results will help you decide how hot, cold, wet, or windy it might be!

Date:

Astronomy

Mar. 01, 2014 Rise Set
Actual Time 7:10 AM EST 6:36 PM EST
Civil Twilight 6:44 AM EST 7:01 PM EST
Nautical Twilight 6:15 AM EST 7:31 PM EST
Astronomical Twilight 5:46 AM EST 8:00 PM EST
Moon 7:05 AM EST (3/1) 7:19 PM EST (3/1)
Length of Visible Light 12h 17m
Length of Day
11h 26m
New Moon, 0% of the Moon is Illuminated
Mar 1
New Moon
Mar 8
First Quarter
Mar 16
Full
Mar 23
Last Quarter
Mar 30
New

Hourly Weather History & Observations

Time (EST) Temp. Windchill Dew Point Humidity Pressure Visibility Wind Dir Wind Speed Gust Speed Precip Events Conditions
12:53 AM 46.0 °F 41.9 °F 30.0 °F 54% 30.18 in 10.0 mi South 8.1 mph - 0.00 in Rain Light Rain
1:53 AM 44.1 °F - 33.1 °F 65% 30.17 in 10.0 mi Calm Calm - 0.00 in   Overcast
2:53 AM 45.0 °F - 33.1 °F 63% 30.17 in 10.0 mi Calm Calm - N/A   Overcast
3:53 AM 44.1 °F - 35.1 °F 71% 30.17 in 10.0 mi Calm Calm - N/A   Overcast
4:53 AM 44.1 °F - 36.0 °F 73% 30.18 in 10.0 mi Calm Calm - N/A   Overcast
5:53 AM 44.1 °F - 36.0 °F 73% 30.19 in 10.0 mi Calm Calm - N/A   Mostly Cloudy
6:53 AM 45.0 °F 43.5 °F 32.0 °F 60% 30.20 in 7.0 mi South 3.5 mph - N/A   Mostly Cloudy
7:53 AM 45.0 °F 43.5 °F 30.9 °F 58% 30.22 in 10.0 mi South 3.5 mph - N/A   Mostly Cloudy
8:53 AM 46.0 °F 43.9 °F 30.9 °F 56% 30.26 in 10.0 mi South 4.6 mph - N/A   Mostly Cloudy
9:53 AM 46.9 °F - 30.0 °F 52% 30.27 in 10.0 mi South 8.1 mph - N/A   Mostly Cloudy
10:53 AM 48.9 °F - 30.9 °F 50% 30.27 in 10.0 mi South 6.9 mph - N/A   Overcast
11:53 AM 50.0 °F - 32.0 °F 50% 30.27 in 10.0 mi SSW 5.8 mph - N/A   Overcast
12:53 PM 51.1 °F - 33.1 °F 50% 30.25 in 10.0 mi SSW 8.1 mph - N/A   Overcast
1:53 PM 52.0 °F - 33.1 °F 49% 30.21 in 10.0 mi South 5.8 mph - N/A   Overcast
2:20 PM 53.1 °F - 34.0 °F 48% 30.20 in 10.0 mi South 6.9 mph - N/A   Overcast
2:53 PM 53.1 °F - 35.1 °F 50% 30.19 in 10.0 mi SSW 8.1 mph - N/A   Overcast
3:53 PM 54.0 °F - 36.0 °F 51% 30.20 in 10.0 mi South 4.6 mph - N/A   Overcast
4:53 PM 55.0 °F - 37.0 °F 51% 30.19 in 10.0 mi SSW 4.6 mph - N/A   Overcast
5:05 PM 55.0 °F - 37.0 °F 51% 30.19 in 10.0 mi Variable 3.5 mph - N/A   Overcast
5:53 PM 55.9 °F - 37.0 °F 49% 30.19 in 10.0 mi Calm Calm - N/A   Overcast
6:53 PM 55.0 °F - 37.9 °F 53% 30.19 in 10.0 mi South 3.5 mph - N/A   Mostly Cloudy
7:53 PM 54.0 °F - 37.9 °F 55% 30.20 in 10.0 mi Calm Calm - N/A   Overcast
8:53 PM 52.0 °F - 41.0 °F 66% 30.22 in 10.0 mi Calm Calm - N/A   Overcast
9:53 PM 51.1 °F - 39.9 °F 66% 30.22 in 10.0 mi Calm Calm - N/A   Mostly Cloudy
10:53 PM 46.0 °F - 39.0 °F 76% 30.20 in 10.0 mi Calm Calm - N/A   Scattered Clouds
11:53 PM 46.0 °F - 39.9 °F 79% 30.21 in 10.0 mi Calm Calm - N/A   Scattered Clouds